[[{"header":{"parameterUnit":"m.s-1","parameterCategory":1,"la1":30.2991,"la2":30.254,"lo1":-89.0895,"lo2":-89.0444,"dy":0.0017,"dx":0.0017,"nx":28,"ny":28,"refTime":"2024-10-07T09:00:00:Z","depth":0,"parameterNumber":2,"parameterNumberName":"U-component_of_WINDS"},"data":[0,0,0,0,0,0,0,0,0,0,0,0,0,0,0,0,0,0,0,0,0,0,0,0,0,0,0,0,0,0,0,0,0,0,0,0,0,0,0,0,0,0,0,0,0,0,0,0,0,0,0,0,0,0,0,0,0,0,-1.3814,-1.3814,0,-1.3866,-1.3866,-1.3867,-1.3811,-1.3809,-1.3807,-1.3805,-1.3861,-1.3865,-1.3868,0,0,0,0,0,0,0,0,0,0,0,0,0,-1.3668,-1.3671,-1.3813,-1.3814,-1.3815,-1.3865,-1.3866,-1.3867,-1.3812,-1.3809,-1.3806,-1.3804,-1.386,-1.3864,-1.3868,0,0,0,0,0,0,0,0,0,0,0,0,0,-1.3727,-1.3672,-1.3813,-1.3793,-1.3792,-1.3865,-1.3866,-1.3867,-1.3812,-1.3809,-1.3806,-1.3803,-1.3859,-1.3864,-1.3869,-1.3966,0,0,-1.3885,-1.3887,0,0,0,0,0,0,0,0,-1.3724,-1.3732,-1.3796,-1.3795,-1.3793,-1.3828,-1.3836,-1.39,-1.3813,-1.3805,-1.3805,-1.3801,-1.3853,-1.3859,-1.3876,-1.3968,-1.3971,-1.3885,-1.3889,-1.3891,-1.3892,0,0,0,0,0,0,0,-1.372,-1.373,-1.3834,-1.3797,-1.3795,-1.3782,-1.3787,-1.3848,-1.3846,-1.3805,-1.3801,-1.3808,-1.3852,-1.3871,-1.3876,-1.3971,-1.3885,-1.389,-1.3893,-1.3895,-1.4146,-1.415,0,0,0,0,0,0,-1.3718,-1.3727,-1.3832,-1.3836,-1.375,-1.3788,-1.3793,-1.3821,-1.3846,-1.3846,-1.3811,-1.3805,-1.3863,-1.387,-1.3878,-1.3994,-1.3891,-1.3896,-1.3899,-1.4143,-1.4147,-1.4151,0,0,0,0,0,0,-1.3715,-1.3728,-1.383,-1.378,-1.3792,-1.3793,-1.3825,-1.3823,-1.3842,-1.385,-1.3849,-1.383,-1.3861,-1.3871,-1.3944,-1.3995,-1.3898,-1.3903,-1.4139,-1.4144,-1.4149,-1.4226,0,0,0,0,0,0,-1.3711,-1.3727,-1.3763,-1.3781,-1.3795,-1.3895,-1.3828,-1.3827,-1.3851,-1.3844,-1.3868,-1.3869,-1.3859,-1.3937,-1.3949,-1.4001,-1.3907,-1.4134,-1.4141,-1.4148,-1.4219,-1.4233,-1.4245,0,0,0,0,0,-1.3706,-1.3783,-1.3765,-1.3779,-1.3841,-1.3898,-1.3906,-1.3893,-1.3855,-1.3892,-1.3897,-1.3868,-1.3987,-1.3945,-1.3959,-1.4012,-1.4131,-1.4139,-1.4147,-1.4213,-1.423,-1.4245,0,0,0,0,0,0,-1.3772,-1.3785,-1.3766,-1.3851,-1.3874,-1.3889,-1.3935,-1.3912,-1.3947,-1.3939,-1.3922,-1.3928,-1.4006,-1.4016,-1.3969,-1.4107,-1.4053,-1.4064,-1.4098,-1.4115,-1.4128,-1.4125,-1.3911,0,0,0,0,0,-1.3797,-1.3842,-1.3851,-1.3925,-1.3938,-1.3934,-1.3959,-1.3947,-1.397,-1.398,-1.399,-1.4014,-1.4057,-1.4086,-1.4126,-1.4219,-1.4224,-1.4262,-1.4276,-1.4286,-1.4297,-1.4348,-1.4366,-1.4177,-1.4177,-1.4177,0,0,-1.3848,-1.3861,-1.3891,-1.3939,-1.3955,-1.4003,-1.3943,-1.3996,-1.4032,-1.3988,-1.4058,-1.4066,-1.4092,-1.4176,-1.4214,-1.4187,-1.435,-1.4297,-1.4305,-1.431,-1.4358,-1.4376,-1.4392,-1.4183,-1.4182,-1.4181,0,0,-1.3967,-1.398,-1.4044,-1.4061,-1.4086,-1.4083,-1.4098,-1.4117,-1.412,-1.419,-1.4158,-1.42,-1.4274,-1.4294,-1.4314,-1.4439,-1.4414,-1.4452,-1.4523,-1.4572,-1.4587,-1.46,-1.4646,-1.4663,-1.4462,-1.4462,-1.4462,0,-1.4028,-1.4098,-1.408,-1.4136,-1.4159,-1.4119,-1.4185,-1.4202,-1.4239,-1.4256,-1.4225,-1.4317,-1.4332,-1.442,-1.445,-1.4467,-1.4485,-1.4451,-1.4586,-1.4599,-1.4611,-1.4655,-1.4672,-1.4467,-1.4466,-1.4466,-1.4466,0,-1.4173,-1.4222,-1.4271,-1.4307,-1.4334,-1.4395,-1.4386,-1.4417,-1.4402,-1.4402,-1.4474,-1.449,-1.4532,-1.4552,-1.4538,-1.4639,-1.4621,-1.4588,-1.4534,-1.4634,-1.4675,-1.4691,-1.4474,-1.4472,-1.4471,-1.4469,0,0,-1.4338,-1.4361,-1.438,-1.4396,-1.4419,-1.4458,-1.4516,-1.4556,-1.4583,-1.4609,-1.4659,-1.4722,-1.4691,-1.4714,-1.4701,-1.4745,-1.4844,-1.4706,-1.4707,-1.4733,-1.4958,-1.4984,-1.5004,-1.4826,-1.4829,-1.4832,-1.4956,0,-1.4458,-1.4559,-1.4544,-1.4641,-1.4687,-1.4649,-1.47,-1.4721,-1.4722,-1.4762,-1.4763,-1.4809,-1.4764,-1.4778,-1.4819,-1.4823,-1.4889,-1.4814,-1.4874,-1.4876,-1.4871,-1.5025,-1.5053,-1.5169,-1.4972,-1.4974,-1.4976,0,-1.4613,-1.4644,-1.4746,-1.4762,-1.4781,-1.4827,-1.4863,-1.49,-1.4923,-1.4921,-1.4945,-1.4925,-1.4984,-1.4926,-1.5008,-1.4957,-1.498,-1.4986,-1.499,-1.4998,-1.4934,-1.5038,-1.5206,-1.5224,-1.5001,-1.4999,-1.4997,0,-1.4725,-1.4792,-1.4862,-1.4876,-1.4897,-1.493,-1.494,-1.4959,-1.4985,-1.5016,-1.5032,-1.507,-1.5092,-1.5122,-1.5113,-1.5071,-1.5197,-1.5138,-1.5198,-1.5199,-1.5229,-1.5228,-1.5405,-1.524,-1.524,-1.5239,-1.5239,0,-1.4863,-1.4927,-1.4913,-1.4956,-1.5027,-1.5008,-1.5079,-1.5085,-1.5102,-1.5146,-1.5115,-1.5158,-1.5141,-1.5183,-1.5176,-1.5245,-1.5255,-1.5256,-1.5254,-1.526,-1.526,-1.5277,-1.527,-1.5244,-1.5243,-1.5242,-1.5241,0,-1.5002,-1.4994,-1.5068,-1.5081,-1.5085,-1.5137,-1.5148,-1.5189,-1.5187,-1.5244,-1.5256,-1.5254,-1.5301,-1.5294,-1.5346,-1.5341,-1.5428,-1.5415,-1.5421,-1.5419,-1.548,-1.5475,-1.5677,-1.5703,-1.5519,-1.552,-1.5522,0,-1.5091,-1.514,-1.5157,-1.5184,-1.5197,-1.524,-1.5266,-1.5249,-1.5277,-1.5305,-1.5343,-1.5387,-1.5421,-1.5498,-1.5502,-1.5542,-1.5531,-1.5599,-1.5537,-1.5542,-1.5535,-1.5533,-1.5538,-1.5612,-1.5614,-1.5616,-1.5617,0,-1.5252,-1.5246,-1.5283,-1.5319,-1.535,-1.5378,-1.5403,-1.5427,-1.5412,-1.5445,-1.5492,-1.5519,-1.5571,-1.5616,-1.5653,-1.5664,-1.564,-1.5636,-1.5652,-1.5661,-1.5663,-1.5665,-1.5457,-1.5632,-1.5631,-1.563,-1.5629,-1.5628,-1.5371,-1.5412,-1.5431,-1.5473,-1.549,-1.5514,-1.5553,-1.5555,-1.5594,-1.5635,-1.5623,-1.5677,-1.5697,-1.5745,-1.576,-1.5802,-1.5777,-1.5801,-1.5807,-1.5814,-1.5822,-1.5654,-1.5808,-1.5808,-1.5808,-1.5807,-1.5807,0,-1.5531,-1.5541,-1.558,-1.5616,-1.5649,-1.562,-1.5646,-1.5676,-1.5724,-1.5745,-1.5779,-1.5833,-1.5876,-1.5882,-1.5923,-1.5956,-1.5946,-1.5967,-1.5966,-1.597,-1.5841,-1.5824,-1.5975,-1.5975,-1.5975,-1.5975,-1.5975,-1.5975,-1.5619,-1.5688,-1.5684,-1.5761,-1.577,-1.5822,-1.584,-1.5862,-1.5878,-1.594,-1.5975,-1.5978,-1.5993,-1.6035,-1.6073,-1.6074,-1.6091,-1.6118,-1.6115,-1.5995,-1.5978,-1.5963,-1.5946,-1.6121,-1.6122,-1.624,-1.6241,-1.6242]},{"header":{"parameterUnit":"m.s-1","parameterCategory":1,"la1":30.2991,"la2":30.254,"lo1":-89.0895,"lo2":-89.0444,"dy":0.0017,"dx":0.0017,"nx":28,"ny":28,"refTime":"2024-10-07T09:00:00:Z","depth":0,"parameterNumber":3,"parameterNumberName":"V-component_of_WINDS"},"data":[0,0,0,0,0,0,0,0,0,0,0,0,0,0,0,0,0,0,0,0,0,0,0,0,0,0,0,0,0,0,0,0,0,0,0,0,0,0,0,0,0,0,0,0,0,0,0,0,0,0,0,0,0,0,0,0,0,0,-5.3873,-5.3874,0,-5.3945,-5.3946,-5.3947,-5.3868,-5.3865,-5.3862,-5.3859,-5.3928,-5.3933,-5.3937,0,0,0,0,0,0,0,0,0,0,0,0,0,-5.3662,-5.3666,-5.3873,-5.3874,-5.3875,-5.3945,-5.3946,-5.3947,-5.3868,-5.3865,-5.3861,-5.3857,-5.3927,-5.3932,-5.3938,0,0,0,0,0,0,0,0,0,0,0,0,0,-5.3745,-5.3667,-5.3873,-5.3844,-5.3842,-5.3945,-5.3946,-5.3947,-5.3869,-5.3864,-5.386,-5.3856,-5.3925,-5.3932,-5.3938,-5.4072,0,0,-5.396,-5.3963,0,0,0,0,0,0,0,0,-5.3741,-5.3753,-5.3847,-5.3846,-5.3844,-5.3893,-5.3897,-5.3989,-5.387,-5.3859,-5.3859,-5.3854,-5.392,-5.3927,-5.395,-5.4075,-5.4078,-5.396,-5.3965,-5.3968,-5.397,0,0,0,0,0,0,0,-5.3735,-5.375,-5.3901,-5.3849,-5.3847,-5.3826,-5.3833,-5.3914,-5.3913,-5.3859,-5.3854,-5.3864,-5.3918,-5.3944,-5.3951,-5.4079,-5.396,-5.3966,-5.3971,-5.3973,-5.4315,-5.432,0,0,0,0,0,0,-5.3733,-5.3745,-5.3899,-5.3903,-5.3781,-5.3833,-5.3841,-5.3882,-5.3912,-5.3913,-5.3867,-5.386,-5.3934,-5.3943,-5.3953,-5.4111,-5.3968,-5.3974,-5.3978,-5.4311,-5.4317,-5.4322,0,0,0,0,0,0,-5.3729,-5.3748,-5.3896,-5.3823,-5.384,-5.3842,-5.3888,-5.3886,-5.3911,-5.3919,-5.3918,-5.3894,-5.3931,-5.3944,-5.4043,-5.4112,-5.3977,-5.3984,-5.4305,-5.4312,-5.4319,-5.4428,0,0,0,0,0,0,-5.3723,-5.3747,-5.3798,-5.3825,-5.3845,-5.3986,-5.3892,-5.389,-5.3924,-5.3914,-5.3943,-5.3944,-5.3928,-5.4033,-5.405,-5.4119,-5.3989,-5.4299,-5.4308,-5.4317,-5.4418,-5.4438,-5.4455,0,0,0,0,0,-5.3716,-5.3825,-5.3801,-5.382,-5.391,-5.399,-5.4001,-5.3983,-5.393,-5.3981,-5.3986,-5.3943,-5.4102,-5.4044,-5.4062,-5.4135,-5.4294,-5.4305,-5.4316,-5.441,-5.4434,-5.4454,0,0,0,0,0,0,-5.3805,-5.3828,-5.3802,-5.3923,-5.3956,-5.3977,-5.4041,-5.4009,-5.4056,-5.4045,-5.4019,-5.4026,-5.4131,-5.4143,-5.4078,-5.4265,-5.4189,-5.4204,-5.4254,-5.4277,-5.4295,-5.429,-5.3995,0,0,0,0,0,-5.3839,-5.3904,-5.392,-5.4025,-5.4043,-5.404,-5.4074,-5.4057,-5.4089,-5.4102,-5.4114,-5.4145,-5.4202,-5.424,-5.4293,-5.4419,-5.4424,-5.4478,-5.4496,-5.4512,-5.4525,-5.4592,-5.4616,-5.4358,-5.4358,-5.4358,0,0,-5.3909,-5.393,-5.3972,-5.4044,-5.4067,-5.4134,-5.4052,-5.4126,-5.4175,-5.4112,-5.4208,-5.4218,-5.425,-5.4364,-5.4415,-5.4377,-5.4597,-5.4526,-5.4538,-5.4543,-5.4606,-5.463,-5.4652,-5.4366,-5.4364,-5.4363,0,0,-5.4072,-5.4094,-5.4185,-5.421,-5.4247,-5.4244,-5.4265,-5.4292,-5.4297,-5.4392,-5.4347,-5.4403,-5.4502,-5.4528,-5.4554,-5.4726,-5.4688,-5.4744,-5.484,-5.4906,-5.4926,-5.4944,-5.5006,-5.5028,-5.4757,-5.4757,-5.4758,0,-5.4154,-5.4255,-5.4234,-5.4313,-5.4345,-5.4293,-5.4384,-5.4408,-5.446,-5.4483,-5.444,-5.4563,-5.4582,-5.47,-5.4743,-5.4765,-5.4788,-5.474,-5.4926,-5.4943,-5.496,-5.5018,-5.5041,-5.4764,-5.4763,-5.4763,-5.4762,0,-5.4354,-5.4424,-5.4492,-5.4546,-5.4585,-5.4669,-5.466,-5.4703,-5.4682,-5.4683,-5.4781,-5.4801,-5.4857,-5.4884,-5.4864,-5.5,-5.4975,-5.493,-5.4853,-5.4991,-5.5045,-5.5067,-5.4773,-5.4771,-5.4769,-5.4767,0,0,-5.4574,-5.4616,-5.4641,-5.4664,-5.4701,-5.4755,-5.4835,-5.4892,-5.4929,-5.4966,-5.5032,-5.5117,-5.5075,-5.5105,-5.5087,-5.5145,-5.528,-5.5092,-5.5092,-5.5126,-5.543,-5.5465,-5.5491,-5.5255,-5.5259,-5.5263,-5.5428,0,-5.4737,-5.488,-5.4864,-5.4999,-5.5063,-5.5015,-5.5085,-5.5115,-5.5118,-5.5172,-5.5174,-5.5235,-5.5175,-5.5193,-5.5248,-5.5252,-5.5341,-5.524,-5.5315,-5.5318,-5.5309,-5.5519,-5.5556,-5.571,-5.5449,-5.5452,-5.5455,0,-5.4946,-5.4993,-5.5136,-5.5163,-5.5189,-5.5253,-5.5303,-5.5356,-5.5388,-5.5386,-5.5419,-5.5391,-5.5471,-5.5393,-5.5502,-5.5434,-5.5463,-5.547,-5.5476,-5.5482,-5.5395,-5.5531,-5.5759,-5.5783,-5.5488,-5.5485,-5.5483,0,-5.5093,-5.5191,-5.5289,-5.531,-5.5345,-5.539,-5.5406,-5.5434,-5.5469,-5.5513,-5.5535,-5.5587,-5.5615,-5.5655,-5.5641,-5.5586,-5.5753,-5.5673,-5.5752,-5.5753,-5.5789,-5.5787,-5.6026,-5.5809,-5.5809,-5.5808,-5.5808,0,-5.5277,-5.5365,-5.5355,-5.5415,-5.5513,-5.5493,-5.559,-5.5599,-5.5625,-5.5685,-5.5645,-5.5702,-5.5681,-5.5736,-5.5726,-5.5817,-5.583,-5.583,-5.5826,-5.5833,-5.5833,-5.5852,-5.5841,-5.5814,-5.5813,-5.5812,-5.5811,0,-5.5456,-5.5453,-5.5557,-5.5581,-5.5589,-5.566,-5.568,-5.5736,-5.5736,-5.5813,-5.5829,-5.5829,-5.5892,-5.5883,-5.5952,-5.5945,-5.6059,-5.6042,-5.6049,-5.6045,-5.6124,-5.6117,-5.6383,-5.6417,-5.6179,-5.6181,-5.6183,0,-5.5574,-5.5641,-5.5674,-5.5712,-5.5732,-5.5794,-5.583,-5.5813,-5.5852,-5.5893,-5.5944,-5.6004,-5.6051,-5.6153,-5.6158,-5.6211,-5.6194,-5.6284,-5.6202,-5.6207,-5.6196,-5.6192,-5.6198,-5.63,-5.6303,-5.6305,-5.6307,0,-5.5783,-5.5778,-5.5833,-5.5887,-5.5932,-5.5973,-5.601,-5.6043,-5.6029,-5.6075,-5.6139,-5.6176,-5.6248,-5.6307,-5.6357,-5.6371,-5.6337,-5.6333,-5.6354,-5.6362,-5.6364,-5.6364,-5.6093,-5.6327,-5.6325,-5.6323,-5.6322,-5.6322,-5.5935,-5.5993,-5.6025,-5.6087,-5.6113,-5.6149,-5.6203,-5.6211,-5.6265,-5.6323,-5.6309,-5.6382,-5.6412,-5.6475,-5.6495,-5.6551,-5.6517,-5.6548,-5.6556,-5.6563,-5.6573,-5.6355,-5.656,-5.6559,-5.6558,-5.6558,-5.6558,0,-5.6142,-5.616,-5.6218,-5.6272,-5.632,-5.6286,-5.6325,-5.6367,-5.6433,-5.6464,-5.6512,-5.6586,-5.6643,-5.6653,-5.6708,-5.675,-5.6736,-5.6765,-5.6762,-5.6766,-5.66,-5.6576,-5.6776,-5.6776,-5.6776,-5.6776,-5.6776,-5.6776,-5.6255,-5.6351,-5.635,-5.6459,-5.6476,-5.6549,-5.6574,-5.6607,-5.6631,-5.6717,-5.6765,-5.6772,-5.6794,-5.685,-5.6901,-5.6902,-5.6924,-5.6959,-5.6954,-5.6799,-5.6777,-5.6756,-5.6734,-5.6964,-5.6964,-5.7116,-5.7117,-5.7118]}]]